This demonstration page uses our WeatherBlox Daily Observations layout. Learn more.

Left ArrowRight Arrow

Hourly Observations for April 21, 2015

Temp ( °F °C ) Dew Point ( °F °C ) Humidity (%) Winds ( mph kmh ) Pressure ( in mb ) Visibility ( mi km ) Precip ( " mm )
12:16 am 00:16 Clear 45 7 30 -1 57 57 WSW 12 19 29.8 1009 10 16.0934 N/A
12:36 am 00:36 Clear 46 8 30 -1 53 53 WSW 12 19 29.8 1009 10 16.0934 N/A
12:56 am 00:56 Clear 46 8 30 -1 53 53 WSW 12 19 29.8 1009 10 16.0934 N/A
1:16 am 01:16 Clear 45 7 30 -1 57 57 WSW 10 17 29.8 1009 10 16.0934 N/A
1:36 am 01:36 Clear 45 7 30 -1 57 57 SW 12 19 29.8 1009 10 16.0934 N/A
1:56 am 01:56 Clear 45 7 28 -2 53 53 SW 12 19 29.8 1009 10 16.0934 N/A
2:16 am 02:16 Clear 45 7 28 -2 53 53 SW 10 17 29.8 1009 10 16.0934 N/A
2:36 am 02:36 Clear 45 7 27 -3 49 49 WSW 12 19 29.8 1009 10 16.0934 N/A
2:56 am 02:56 Clear 45 7 27 -3 49 49 SW 10 17 29.77 1008 10 16.0934 N/A
3:16 am 03:16 Clear 43 6 27 -3 53 53 SW 12 19 29.77 1008 10 16.0934 N/A
3:36 am 03:36 Clear 43 6 28 -2 57 57 SW 12 19 29.77 1008 10 16.0934 N/A
3:56 am 03:56 Clear 43 6 28 -2 57 57 SW 13 20 29.77 1008 10 16.0934 N/A
4:16 am 04:16 Clear 43 6 28 -2 57 57 SW 12 19 29.77 1008 10 16.0934 N/A
4:36 am 04:36 Clear 43 6 28 -2 57 57 SW 13 20 29.77 1008 10 16.0934 N/A
4:55 am 04:55 Clear 43 6 28 -2 57 57 SW 13 20 29.77 1008 10 16.0934 N/A
5:16 am 05:16 Clear 43 6 28 -2 57 57 SW 12 19 29.77 1008 10 16.0934 N/A
5:36 am 05:36 Clear 43 6 28 -2 57 57 SSW 12 19 29.77 1008 10 16.0934 N/A
5:55 am 05:55 Clear 43 6 28 -2 57 57 SW 10 17 29.77 1008 10 16.0934 N/A
6:16 am 06:16 Clear 43 6 28 -2 57 57 SW 10 17 29.77 1008 10 16.0934 N/A
6:36 am 06:36 Clear 43 6 27 -3 53 53 SW 9 15 29.77 1008 10 16.0934 N/A
6:56 am 06:56 Clear 43 6 27 -3 53 53 SW 10 17 29.77 1008 10 16.0934 N/A
7:16 am 07:16 Sunny 43 6 27 -3 53 53 SW 10 17 29.77 1008 10 16.0934 N/A
7:36 am 07:36 Sunny 43 6 27 -3 53 53 SW 9 15 29.77 1008 10 16.0934 N/A
7:56 am 07:56 Sunny 43 6 27 -3 53 53 SW 12 19 29.77 1008 10 16.0934 N/A
8:16 am 08:16 Sunny 45 7 25 -4 46 46 WSW 15 24 29.77 1008 10 16.0934 N/A
8:36 am 08:36 Sunny 46 8 25 -4 43 43 WSW 15 24 29.8 1009 10 16.0934 N/A
8:56 am 08:56 Sunny 46 8 25 -4 43 43 WSW 20 31 29.8 1009 10 16.0934 N/A
9:16 am 09:16 Sunny 48 9 25 -4 40 40 WSW 22 35 29.8 1009 10 16.0934 N/A
9:36 am 09:36 Sunny 48 9 25 -4 40 40 WSW 17 28 29.8 1009 10 16.0934 N/A
9:56 am 09:56 Sunny 50 10 25 -4 37 37 WSW 13 20 29.77 1008 10 16.0934 N/A
10:16 am 10:16 Sunny 50 10 25 -4 37 37 WSW 15 24 29.77 1008 10 16.0934 N/A
10:36 am 10:36 Sunny 52 11 25 -4 35 35 WSW 16 26 29.77 1008 10 16.0934 N/A
10:56 am 10:56 Sunny 54 12 25 -4 33 33 WSW 18 30 29.77 1008 10 16.0934 N/A
11:16 am 11:16 Sunny 54 12 19 -7 26 26 WSW 20 31 29.77 1008 10 16.0934 N/A
11:36 am 11:36 Sunny 55 13 21 -6 26 26 WSW 24 39 29.77 1008 10 16.0934 N/A
11:56 am 11:56 Sunny 55 13 18 -8 23 23 WSW 20 31 29.77 1008 10 16.0934 N/A
12:16 pm 12:16 Sunny 55 13 7 -14 14 14 W 24 39 29.77 1008 10 16.0934 N/A
12:36 pm 12:36 Sunny 57 14 9 -13 14 14 W 22 35 29.77 1008 10 16.0934 N/A
12:56 pm 12:56 Sunny 57 14 7 -14 13 13 W 30 48 29.74 1007 10 16.0934 N/A
1:15 pm 13:15 Sunny 57 14 1 -17 10 10 W 29 46 29.74 1007 10 16.0934 N/A
1:36 pm 13:36 Sunny 59 15 7 -14 12 12 W 30 48 29.74 1007 10 16.0934 N/A
1:56 pm 13:56 Sunny 59 15 1 -17 9 9 W 32 52 29.74 1007 10 16.0934 N/A
2:15 pm 14:15 Sunny 59 15 -4 -20 7 7 W 31 50 29.74 1007 10 16.0934 N/A
2:36 pm 14:36 Sunny 59 15 -2 -19 8 8 W 33 54 29.74 1007 10 16.0934 N/A
2:56 pm 14:56 Sunny 59 15 -4 -20 7 7 W 35 56 29.74 1007 10 16.0934 N/A
3:15 pm 15:15 Sunny 59 15 0 -18 9 9 W 33 54 29.74 1007 10 16.0934 N/A
3:36 pm 15:36 Sunny 61 16 0 -18 8 8 W 26 43 29.74 1007 10 16.0934 N/A
3:56 pm 15:56 Sunny 61 16 0 -18 8 8 WSW 25 41 29.74 1007 10 16.0934 N/A
4:16 pm 16:16 Sunny 61 16 1 -17 9 9 W 25 41 29.71 1006 10 16.0934 N/A
4:36 pm 16:36 Sunny 61 16 0 -18 8 8 W 29 46 29.71 1006 10 16.0934 N/A
4:55 pm 16:55 Sunny 59 15 0 -18 9 9 W 25 41 29.71 1006 10 16.0934 N/A
5:16 pm 17:16 Sunny 61 16 0 -18 8 8 W 29 46 29.71 1006 10 16.0934 N/A
5:36 pm 17:36 Sunny 61 16 1 -17 9 9 WSW 25 41 29.71 1006 10 16.0934 N/A
5:56 pm 17:56 Sunny 59 15 1 -17 9 9 W 29 46 29.71 1006 10 16.0934 N/A
6:16 pm 18:16 Sunny 61 16 0 -18 8 8 WSW 26 43 29.71 1006 10 16.0934 N/A
6:36 pm 18:36 Sunny 59 15 3 -16 10 10 W 22 35 29.71 1006 10 16.0934 N/A
6:56 pm 18:56 Sunny 59 15 3 -16 10 10 W 17 28 29.71 1006 10 16.0934 N/A
7:16 pm 19:16 Sunny 59 15 1 -17 9 9 W 24 39 29.71 1006 10 16.0934 N/A
7:36 pm 19:36 Sunny 57 14 0 -18 9 9 W 24 39 29.71 1006 10 16.0934 N/A
7:56 pm 19:56 Sunny 57 14 3 -16 11 11 W 21 33 29.71 1006 10 16.0934 N/A
8:15 pm 20:15 Sunny 55 13 3 -16 12 12 W 20 31 29.71 1006 10 16.0934 N/A
8:36 pm 20:36 Clear 55 13 10 -12 16 16 WSW 12 19 29.71 1006 10 16.0934 N/A
8:56 pm 20:56 Clear 54 12 12 -11 19 19 WSW 13 20 29.71 1006 10 16.0934 N/A
9:16 pm 21:16 Clear 54 12 14 -10 21 21 WSW 9 15 29.71 1006 10 16.0934 N/A
9:36 pm 21:36 Clear 52 11 16 -9 24 24 SW 7 11 29.71 1006 10 16.0934 N/A
9:56 pm 21:56 Clear 52 11 18 -8 26 26 SW 8 13 29.71 1006 10 16.0934 N/A
10:16 pm 22:16 Clear 52 11 18 -8 26 26 SW 7 11 29.71 1006 10 16.0934 N/A
10:36 pm 22:36 Clear 50 10 21 -6 32 32 NW 9 15 29.74 1007 10 16.0934 N/A
10:56 pm 22:56 Clear 50 10 18 -8 28 28 NW 8 13 29.74 1007 10 16.0934 N/A
11:16 pm 23:16 Clear 48 9 21 -6 34 34 NNW 5 7 29.74 1007 10 16.0934 N/A
11:36 pm 23:36 Clear 45 7 23 -5 42 42 NNW 8 13 29.77 1008 10 16.0934 N/A
11:56 pm 23:56 Clear 46 8 23 -5 40 40 NNW 8 13 29.77 1008 10 16.0934 N/A

Powered by AerisWeather